Regional Weather Roundup
Issued by NWS Grand Forks, ND

Home | Current Version | Previous Version | Text Only | Print | Product List | Glossary On
Versions: 1 2 3 4 5 6 7 8 9 10 11 12 13 14 15 16 17 18 19 20 21 22 23 24 25 26 27 28 29 30 31 32 33 34 35 36 37 38 39 40 41 42 43 44 45 46 47 48 49 50
000
ASUS43 KFGF 260231
RWRFGF
PRAIRIE TO PINES  WEATHER ROUNDUP
NATIONAL WEATHER SERVICE EASTERN NORTH DAKOTA/GRAND FORKS ND
900 PM CDT THU MAY 25 2017

 **SATELLITE DATA USED TO AUGMENT SKY COVER AT AUTOMATED STATIONS**
 *****  WEATHER ACROSS EASTERN NORTH DAKOTA  *****

CITY           SKY/WX    TMP DP  RH WIND       PRES   REMARKS
GRAND FORKS    FAIR      66  52  60 S15       29.50R
GRAND FRKS AFB FAIR      64  51  62 S17       29.49R
DEVILS LAKE    CLOUDY    65  46  50 W9        29.49R
FARGO          FAIR      67  52  58 SE15G26   29.53R
WAHPETON ARPT  CLOUDY    63  50  63 SE12      29.56R
$$

 ***** WEATHER ACROSS CENTRAL AND WESTERN NORTH DAKOTA  *****

CITY           SKY/WX    TMP DP  RH WIND       PRES   REMARKS
BISMARCK       CLOUDY    64  44  48 W16       29.56R
MINOT          CLOUDY    63  43  48 SW15      29.49R
JAMESTOWN      FAIR      65  43  44 W9        29.50R
MINOT AFB      FAIR      61  43  51 W15       29.48R
GARRISON         N/A     58  42  55 W12       29.53R
WILLISTON      MOCLDY    60  41  49 W10       29.53R
DICKINSON      CLOUDY    55  40  56 W18G30    29.60R
HETTINGER      FAIR      53  45  74 W20G25    29.66R
$$

 *****  OTHER AIRPORT OBSERVATIONS IN OUR AREA  *****

CITY           SKY/WX    TMP DP  RH WIND       PRES   REMARKS
WALHALLA       NOT AVBL
GRAFTON AIRPOR FAIR      61  50  67 SE14      29.51R
VALLEY CITY AR FAIR      63  52  67 S6        29.53R
CANDO          NOT AVBL
CAVALIER APRT  FAIR      64  48  55 SE10G18   29.47R
GWINNER        CLEAR     63  52  67 MISG      29.53R
SHEYENNE NWR     N/A     65  53  65 S7        29.95S
ROLLA          FAIR      57  46  67 SW12G17   29.48R
 ***** THE ABOVE OBSERVATIONS ARE NON NWS ARE NOT QUALITY
       CONTROLLED AND MAY MIS-REPORT RAIN FOR SNOW...
$$

  *****  WEATHER ACROSS NORTHERN MINNESOTA  *****

CITY           SKY/WX    TMP DP  RH WIND       PRES   REMARKS
FLAG ISLAND    CLOUDY    57  50  77 S15       29.59R
WARROAD        CLOUDY    63  50  63 SE10      29.60R
ROSEAU         CLOUDY    63  52  67 S12G21    29.58R
HALLOCK        FAIR      64  48  55 SE15      29.50S
THF RVR FALLS  CLOUDY    63  47  55 SE13      29.57R
BAUDETTE       CLOUDY    61  47  59 SE9       29.61R
WASKISH        CLOUDY    59  50  72 S5        29.63R
CROOKSTON      FAIR      63  48  59 S12       29.54R
STEPHEN NDAWN    N/A     64  48  55 SE15        N/A
GREENBUSH NDAW   N/A     63  48  59 S18         N/A
$$
  *****  WEATHER ACROSS CENTRAL AND WEST MINNESOTA  *****

CITY           SKY/WX    TMP DP  RH WIND       PRES   REMARKS
FOSSTON        CLOUDY    61  46  59 SE12G17   29.58R
BEMIDJI        CLOUDY    58  49  71 SE8       29.62R
PARK RAPIDS    LGT RAIN  62  47  57 SE13      29.61R
ELBOW LAKE     MOCLDY    60  53  76 SE13      29.60R
WADENA         CLOUDY    57  52  82 SE12      29.61S
DETROIT LAKES  CLOUDY    61  50  67 SE14      29.60R
MOORHEAD       CLOUDY    64  52  63 S15       29.55R
FERGUS FALLS   CLOUDY    63  52  67 S9        29.57R
MORRIS MN      MOCLDY    63  54  72 S10       29.59R
STAPLES        RAIN      55  52  88 E3        29.63R
$$
  *****  WEATHER ELSEWHERE ACROSS MINNESOTA  *****

CITY           SKY/WX    TMP DP  RH WIND       PRES   REMARKS
DULUTH         MOCLDY    56  44  64 E10       29.70R
INTRNTL FALLS  CLOUDY    61  46  57 SE5       29.65R
ELY            FAIR      57  43  58 SE8       29.71R
CLOQUET        CLOUDY    54  43  66 E6        29.70R
WHEATON        MOCLDY    63  54  72 S9        29.59R
BRAINERD       LGT RAIN  58  55  90 SE5       29.65R
HIBBING        CLOUDY    58  45  62 SE9       29.68R
ALEXANDRIA     MOCLDY    60  52  74 SE10      29.62R
SAINT CLOUD    LGT RAIN  63  52  67 SE8       29.63S
MINNEAPOLIS    CLOUDY    66  50  56 SE7       29.66S
$$

  *****  WEATHER ACROSS SOUTH DAKOTA  *****

CITY           SKY/WX    TMP DP  RH WIND       PRES   REMARKS
SIOUX FALLS    FAIR      63  53  70 S8        29.59R
BROOKINGS      FAIR      61  53  75 S5        29.60R
WATERTOWN      FAIR      58  54  86 S8        29.58R
HURON          FAIR      66  54  65 S6        29.57R
SISSETON         N/A     63  56  78 S7        29.55R
ABERDEEN       FAIR      66  44  45 CALM      29.54R
MITCHELL       FAIR      66  55  67 S3        29.59R
PIERRE         CLOUDY    68  36  30 W7        29.58R
MOBRIDGE       FAIR      67  42  40 NW14      29.56R
RAPID CITY     CLOUDY    57  41  55 N35G43    29.70R
$$

  *****  SOME WEATHER IN NEARBY STATES *****

CITY           SKY/WX    TMP DP  RH WIND       PRES   REMARKS
GLASGOW MT     CLOUDY    53  38  56 NW23G36   29.66R
GREAT FALLS MT CLOUDY    51  36  56 NW10      29.86R
CHEYENNE WY    FAIR      48  41  76 NW8       29.77F
SCOTTSBLUFF NE CLOUDY    58  51  78 S7        29.73R
OMAHA NE       MOCLDY    72  54  53 S6        29.62R
DES MOINES IA  CLOUDY    69  50  50 SE13      29.64R
DAVENPORT IA   FAIR      63  53  70 E9        29.71R
CHICAGO IL     FAIR      59  49  69 NE7       29.73R
EAU CLAIRE WI  FAIR      66  51  58 SW3       29.69R
LA CROSSE WI   FAIR      67  53  61 S6        29.69R
$$

  *****  SOME NATIONAL WEATHER *****

CITY           SKY/WX    TMP DP  RH WIND       PRES   REMARKS
LA GUARDIA NY  DRIZZLE   57  56  96 NE20      29.49S FOG
RALEIGH NC     FAIR      63  58  83 SW10      29.69R
ATLANTA GA     FAIR      63  52  67 W8        29.88R
NEW ORLEANS LA FAIR      75  63  66 S7        29.88R
OKLAHOMA CITY  MOCLDY    79  59  50 S15       29.52R
ALBUQUERQUE NM MOCLDY    80  -1   4 W18G31    29.80R
SALT LAKE CITY FAIR      68  29  23 N7        29.70F
LOS ANGELES CA FAIR      62  51  67 SW10      29.86S
BOISE ID       PTSUNNY   63  32  31 W16       29.72R
SEATTLE WA     FAIR      69  47  45 N9        29.84S
$$

*** WEATHER ACROSS MANITOBA...SASKATCHEWAN AND ONTARIO ***
                ***ONTARIO***

CITY           SKY/WX    TMP DP  RH WIND       PRES   REMARKS
GERALDTON      MOCLDY    61  46  59 E5        29.75R
THUNDER BAY    PTCLDY    55  43  62 E6        29.74R
SIOUX LOOKOUT  MOCLDY    63  43  48 S3        29.65R
TORONTO        LGT RAIN  54  54 100 E10G20    29.54R FOG
BIG TROUT LK   CLEAR     63  30  29 SE6       29.69R
PICKLE LAKE    PTCLDY    64  39  39 S7        29.70R
DRYDEN         CLOUDY    63  45  51 S9        29.65R
KENORA         MOCLDY    63  45  51 SE9       29.61R
$$
                *** MANITOBA***

CITY           SKY/WX    TMP DP  RH WIND       PRES   REMARKS
BRANDON        MOCLDY    61  50  67 SW16      29.40R
DAUPHIN        MOCLDY    59  52  77 S8        29.35R
ISLAND LAKE    NOT AVBL
PILOT MOUND      N/A     59  48  67 SW9         N/A
THE PAS        CLOUDY    54  50  87 E3        29.42R
THOMPSON       LGT RAIN  57  46  67 VRB6      29.55R
WINNIPEG       MOCLDY    63  48  59 SE22      29.48F
LYNN LAKE      LGT RAIN  50  48  93 E7        29.57S
CHURCHILL      CLOUDY    39  36  87 E13       29.68R
GILLAM         MOCLDY    66  32  28 SE3       29.59S
$$
                ***SASKATCHEWAN***

CITY           SKY/WX    TMP DP  RH WIND       PRES   REMARKS
ESTEVAN        MOCLDY    57  43  58 W9        29.47R
KINDERSLEY     CLOUDY    48  41  76 N22G31    29.64R
LLOYDMINSTER   PTSUNNY   52  43  71 N7        29.64R
PRINCE ALBERT  LGT RAIN  52  46  82 N8        29.44R
REGINA         MOCLDY    54  43  66 NW7       29.44R
YORKTON          N/A     54  45  71 SW9       29.34R
N. BATTLEFORD  CLOUDY    48  46  93 N20G28    29.58R
LA RONGE       CLOUDY    54  50  87 N8        29.46R
SASKATOON      CLOUDY    50  46  87 NW18G25   29.47R
SWIFT CURRENT  LGT RAIN  45  41  87 NW25G32   29.60R
$$
NOTE: THESE ARE AUTOMATED STATIONS WITH LIMITED QUALITY CONTROL
      "FAIR" INDICATES FEW OR NO CLOUDS BELOW 12,000 FEET WITH NO
      SIGNIFICANT WEATHER AND/OR OBSTRUCTIONS TO VISIBILITY.
      SKY/WX - SKY CONDITION AND SIGNIFICANT WEATHER.
      TMP - AIR TEMPERATURE.    DP   - DEWPOINT TEMPERATURE.
      RH  - RELATIVE HUMIDITY.  PRES - PRESSURE.
      HX  - HEAT INDEX.         WCI  - WIND CHILL INDEX.
$



USA.gov is the U.S. government's official web portal to all federal, state and local government web resources and services.